Location: La Brionne
(46.1728°N, 1.7849°E)
Time: 08:32:49
(UTC+00:00)

ATLAS CENTAUR R/B - Pass Details

Date: 16 June 2021
Orbit: 472 x 671 km, 64.6° (Epoch: 13 June)

Event Time Altitude Azimuth Distance (km) Brightness Sun altitude
Rises 23:16:04 0° 312° (NW) 2,815 5.8 -19.9°
Reaches altitude 10° 23:18:34 10° 299° (WNW) 1,947 4.6 -20.0°
Maximum altitude 23:22:08 24° 245° (WSW) 1,279 3.0 -20.1°
Enters shadow 23:22:33 24° 236° (SW) 1,294 2.9 -20.1°
